Погода в Фанерном

Россия / Нижегородская область     57°08′52″N   44°31′07″E
темп.,
°C
ветер,
м/с
пор.,
м/с
влажн.,
%
обл.,
%
осадки,
мм/ч
давл.,
гПа
погр.,
м
4 декабря, сб
сб400:000юв41299100 1.3 1000642
03:00+1ю41398100 5.3 997950
06:00+2зюз51197100 2.6 994842
09:000зюз6118287 3.7 9971078
12:00−2зюз6118298 0.1 10001071
15:00−3юз61281100 0.2 10021227
18:00−3зюз61185100 0.3 10031105
21:00−5зюз51188100 0.3 1006931
5 декабря, вс
вс500:00−5з41090100 0.1 10081024
03:00−9сз4108488 0.3 1011584
06:00−11сз378190 0.0 1013537
09:00−12сз24776 0.0 1016403
12:00−11сз23705 0.0 1018485
15:00−12ссз23735 0.0 1019435
18:00−13ссв22795 0.0 1021307
21:00−13св22816 0.0 1022245
6 декабря, пн
пн600:00−14св228232 0.0 1023211
03:00−14св238330 0.0 1024194
06:00−14всв238472 0.0 1025198
09:00−13всв248273 0.0 1026225
12:00−11в3486100 0.1 1027296
15:00−10в3588100 0.4 1027284
18:00−10в3691100 0.2 1028258
21:00−9в3792100 0.4 1028254
7 декабря, вт
вт700:00−8вюв3894100 0.2 1028244
03:00−7вюв3893100 0.6 1028281
06:00−6вюв41294100 0.0 1026363
09:00−6вюв51490100 0.0 1026487
12:00−4юв51483100 0.0 1024668
15:00−4юв61693100 1.2 1022818
18:00−4юв71694100 2.5 1019855
21:00−3юв51495100 5.3 1017691
8 декабря, ср
ср800:00−3юв51296100 2.6 1015557
03:00−1юв41297100 4.9 1013486
06:000ю41299100 3.7 1011572
09:00+1ююз41299100 6.3 1012683
12:00+1ююз41099100 0.4 1013616
15:00+1юз2699100 0.9 1015467
18:000з2499100 0.4 1017250
21:00−3зсз2498100 1.6 1018220